Doha, Qatar

8:32 AM AST on September 28, 2016 (GMT +0300)
Doha International

Weather History for OTBD - September, 2011

Change the Weather History Date:

Saturday, September 17, 2011

  Actual Average Record
Temperature  
Mean Temperature 98 °F -  
Max Temperature 109 °F 99 °F 112 °F (2013)
Min Temperature 88 °F 83 °F 77 °F (1997)
Cooling Degree Days 34    
Growing Degree Days 48 (Base 50)    
Moisture  
Dew Point 62 °F    
Average Humidity 34    
Maximum Humidity 59    
Minimum Humidity 14    
Precipitation  
Precipitation 0.00 in - - ()
Sea Level Pressure  
Sea Level Pressure 29.60 in    
Wind  
Wind Speed 11 mph ()    
Max Wind Speed 21 mph    
Max Gust Speed -    
Visibility 9.0 miles    
Events      
Averages and records for this station are not official NWS values.
T = Trace of Precipitation, MM = Missing Value Source: Averaged Metar Reports

Daily Weather History Graph

Daily Weather History Graph

Search for Another Location

Airport or City:

Trip Planner

Search our weather history database for the weather conditions in past years. The results will help you decide how hot, cold, wet, or windy it might be!

Date:

Astronomy

Sep. 17, 2011 Rise Set
Actual Time 5:20 AM AST 5:36 PM AST
Civil Twilight 4:57 AM AST 5:59 PM AST
Nautical Twilight 4:30 AM AST 6:25 PM AST
Astronomical Twilight 4:03 AM AST 6:52 PM AST
Moon 8:27 PM AST (9/17) 9:24 AM AST (9/17)
Length of Visible Light 13h 01m
Length of Day
12h 16m
Waning Gibbous, 79% of the Moon is Illuminated
Sep 17
Waning Gibbous
Sep 20
Last Quarter
Sep 27
New
Oct 4
First Quarter
Oct 12
Full

Hourly Weather History & Observations

Time (AST) Temp. Heat Index Dew Point Humidity Pressure Visibility Wind Dir Wind Speed Gust Speed Precip Events Conditions
12:00 AM 91.4 °F 95.4 °F 68.0 °F 46% 29.59 in - NW 8.1 mph - N/A   Clear
12:30 AM 91.4 °F 95.4 °F 68.0 °F 46% 29.59 in - WNW 8.1 mph - N/A   Clear
1:00 AM 91.4 °F 94.0 °F 66.2 °F 43% 29.59 in - NW 8.1 mph - N/A   Clear
1:30 AM 91.4 °F 94.0 °F 66.2 °F 43% 29.59 in - NW 8.1 mph - N/A   Clear
2:00 AM 91.4 °F 94.0 °F 66.2 °F 43% 29.56 in - North - - N/A   Clear
2:30 AM 89.6 °F 92.2 °F 66.2 °F 46% 29.56 in - NW 16.1 mph - N/A   Clear
3:00 AM 90 °F - 66 °F 35% 29.57 in 9 mi NW 13.8 mph - -  
3:00 AM 91.4 °F 94.0 °F 66.2 °F 43% 29.56 in - NW 13.8 mph - N/A   Clear
3:30 AM 89.6 °F 92.2 °F 66.2 °F 46% 29.56 in - NW 11.5 mph - N/A   Clear
4:00 AM 89.6 °F 92.2 °F 66.2 °F 46% 29.56 in - NW 11.5 mph - N/A   Clear
4:30 AM 89.6 °F 93.4 °F 68.0 °F 49% 29.56 in - NW 10.4 mph - N/A   Clear
5:00 AM 89.6 °F 94.7 °F 69.8 °F 52% 29.59 in - NW 11.5 mph - N/A   Clear
5:30 AM 89.6 °F 94.7 °F 69.8 °F 52% 29.59 in - WNW 10.4 mph - N/A   Clear
6:00 AM 89.6 °F 94.7 °F 69.8 °F 52% 29.59 in - NW 8.1 mph - N/A   Clear
6:30 AM 89.6 °F 96.2 °F 71.6 °F 55% 29.59 in - NW 10.4 mph - N/A   Clear
7:00 AM 89.6 °F 98.2 °F 73.4 °F 59% 29.62 in - NW 9.2 mph - N/A   Clear
7:30 AM 91.4 °F 100.1 °F 73.4 °F 55% 29.62 in - NW 10.4 mph - N/A   Clear
8:00 AM 93.2 °F 100.5 °F 71.6 °F 49% 29.62 in - NW 11.5 mph - N/A   Clear
8:30 AM 95.0 °F 101.3 °F 69.8 °F 44% 29.65 in - NW 8.1 mph - N/A   Clear
9:00 AM 96 °F - 68 °F 30% 29.66 in 9 mi NW 11.5 mph - -  
9:00 AM 96.8 °F 101.8 °F 68.0 °F 39% - - NW 11.5 mph - N/A   Clear
9:30 AM 96.8 °F 100.7 °F 66.2 °F 37% 29.65 in - NNW 13.8 mph - N/A   Clear
10:00 AM 102.2 °F 102.4 °F 59.0 °F 24% 29.65 in - NNW 17.3 mph - N/A   Clear
10:30 AM 102.2 °F 101.4 °F 57.2 °F 22% 29.62 in - North 18.4 mph - N/A   Clear
11:00 AM 104.0 °F 102.9 °F 55.4 °F 20% 29.62 in - North 19.6 mph - N/A   Clear
11:30 AM 105.8 °F - 51.8 °F 17% 29.62 in - NNW 19.6 mph - N/A   Clear
12:00 PM 105.8 °F - 50.0 °F 15% 29.59 in - NNW 19.6 mph - N/A   Clear
12:30 PM 105.8 °F - 51.8 °F 17% 29.59 in - NNW 17.3 mph - N/A   Clear
1:00 PM 107.6 °F - 51.8 °F 16% 29.59 in - North 18.4 mph - N/A   Clear
1:30 PM 107.6 °F 108.2 °F 59.0 °F 20% 29.59 in - NNW 18.4 mph - N/A   Clear
2:00 PM 105.8 °F 104.9 °F 55.4 °F 19% 29.59 in - NW 17.3 mph - N/A   Clear
2:30 PM 105.8 °F 105.5 °F 57.2 °F 20% 29.59 in - NNW 20.7 mph - N/A   Clear
3:00 PM 105 °F - 59 °F 14% 29.60 in 7 mi NNW 17.3 mph - -  
3:00 PM 105.8 °F 106.8 °F 59.0 °F 22% 29.59 in - NNW 17.3 mph - N/A   Clear
3:30 PM 105.8 °F 108.3 °F 62.6 °F 24% 29.59 in - NNW 19.6 mph - N/A   Clear
4:00 PM 104.0 °F 106.6 °F 62.6 °F 26% 29.59 in - NNW 17.3 mph - N/A   Clear
5:00 PM 102.2 °F 103.6 °F 60.8 °F 26% 29.59 in - NNW 15.0 mph - N/A   Clear
5:30 PM 100.4 °F 101.3 °F 60.8 °F 27% 29.59 in - NNW 16.1 mph - N/A   Clear
6:30 PM 96.8 °F 98.0 °F 62.6 °F 32% 29.62 in - NNW 11.5 mph - N/A   Clear
7:00 PM 96.8 °F 97.1 °F 60.8 °F 30% 29.62 in - NNW 12.7 mph - N/A   Clear
7:30 PM 93.2 °F 94.1 °F 62.6 °F 36% 29.62 in - North 8.1 mph - N/A   Clear
8:00 PM 91.4 °F 93.2 °F 64.4 °F 41% 29.62 in - North 5.8 mph - N/A   Clear
8:30 PM 91.4 °F 90.7 °F 59.0 °F 34% 29.62 in - North 6.9 mph - N/A   Clear
9:00 PM 92 °F - 59 °F 24% 29.65 in 11 mi NNW 8.1 mph - -  
9:00 PM 91.4 °F 90.7 °F 59.0 °F 34% 29.62 in - NNW 8.1 mph - N/A   Clear
9:30 PM 91.4 °F 89.9 °F 57.2 °F 31% 29.62 in - NNW 9.2 mph - N/A   Clear
10:00 PM 91.4 °F 89.9 °F 57.2 °F 31% 29.62 in - NNW 6.9 mph - N/A   Clear
10:30 PM 91.4 °F 89.4 °F 55.4 °F 29% 29.62 in - NNW 6.9 mph - N/A   Clear
11:00 PM 91.4 °F 89.1 °F 53.6 °F 28% 29.62 in - NNW 5.8 mph - N/A   Clear
11:30 PM 91.4 °F 89.1 °F 53.6 °F 28% 29.62 in - Variable 2.3 mph - N/A   Clear